[[{"header":{"parameterUnit":"m.s-1","parameterCategory":1,"la1":30.2991,"la2":30.254,"lo1":-89.0895,"lo2":-89.0444,"dy":0.0017,"dx":0.0017,"nx":28,"ny":28,"refTime":"2024-07-04T09:00:00:Z","depth":0,"parameterNumber":2,"parameterNumberName":"U-component_of_WINDS"},"data":[0,0,0,0,0,0,0,0,0,0,0,0,0,0,0,0,0,0,0,0,0,0,0,0,0,0,0,0,0,0,0,0,0,0,0,0,0,0,0,0,0,0,0,0,0,0,0,0,0,0,0,0,0,0,0,0,0,0,1.5061,1.5062,0,1.5156,1.5157,1.5158,1.5156,1.5154,1.5153,1.5152,1.5251,1.5255,1.5259,0,0,0,0,0,0,0,0,0,0,0,0,0,1.4877,1.4881,1.5061,1.5062,1.5063,1.5156,1.5157,1.5158,1.5156,1.5154,1.5153,1.5151,1.525,1.5254,1.5259,0,0,0,0,0,0,0,0,0,0,0,0,0,1.4963,1.4882,1.5061,1.5073,1.5075,1.5156,1.5157,1.5159,1.5156,1.5154,1.5152,1.515,1.5248,1.5254,1.526,1.5334,0,0,1.5277,1.528,0,0,0,0,0,0,0,0,1.4958,1.497,1.507,1.5072,1.5075,1.5142,1.5129,1.5218,1.5157,1.5126,1.5152,1.5149,1.5216,1.5225,1.5247,1.5339,1.5343,1.5278,1.5281,1.5284,1.5285,0,0,0,0,0,0,0,1.4952,1.4966,1.5099,1.5072,1.5075,1.5074,1.5084,1.5146,1.5181,1.5128,1.5128,1.5139,1.5217,1.5241,1.5249,1.5345,1.5278,1.5283,1.5286,1.5289,1.55,1.5502,0,0,0,0,0,0,1.4944,1.4961,1.5096,1.5102,1.5011,1.5079,1.509,1.5122,1.518,1.5187,1.5141,1.5139,1.5232,1.5242,1.5253,1.5342,1.5284,1.5289,1.5292,1.5498,1.5501,1.5503,0,0,0,0,0,0,1.494,1.4956,1.5092,1.5031,1.5049,1.5084,1.512,1.5125,1.5149,1.519,1.5196,1.5159,1.5231,1.5244,1.5313,1.5345,1.5292,1.5297,1.5496,1.5499,1.5502,1.5523,0,0,0,0,0,0,1.4935,1.4954,1.4983,1.5032,1.5052,1.5151,1.5123,1.5129,1.5159,1.5157,1.5208,1.5215,1.5231,1.5305,1.5319,1.5352,1.5301,1.5493,1.5497,1.5501,1.5519,1.5526,1.5532,0,0,0,0,0,1.4928,1.4987,1.4985,1.5001,1.5089,1.5153,1.5164,1.5181,1.5162,1.5191,1.5216,1.5213,1.534,1.5312,1.5328,1.5364,1.5491,1.5496,1.5501,1.5516,1.5525,1.5532,0,0,0,0,0,0,1.4942,1.4993,1.4992,1.5068,1.5106,1.5152,1.519,1.519,1.5234,1.5231,1.525,1.5261,1.533,1.5354,1.5322,1.5438,1.5413,1.5421,1.5419,1.5428,1.5434,1.5426,1.5306,0,0,0,0,0,1.4954,1.5002,1.5044,1.5107,1.5126,1.5154,1.5183,1.5192,1.5232,1.5249,1.528,1.5319,1.5367,1.5399,1.5446,1.5523,1.5533,1.5555,1.5562,1.5567,1.5573,1.5613,1.5623,1.5519,1.5519,1.5519,0,0,1.4979,1.5013,1.5042,1.511,1.5141,1.5189,1.5168,1.5221,1.5257,1.5257,1.5323,1.5347,1.5392,1.5464,1.5498,1.5487,1.5604,1.5573,1.5577,1.5581,1.5619,1.5629,1.5637,1.5522,1.5522,1.5521,0,0,1.505,1.5081,1.5135,1.5166,1.5211,1.523,1.5242,1.5289,1.5304,1.537,1.5371,1.5414,1.5497,1.5529,1.5556,1.5635,1.5633,1.565,1.5683,1.5722,1.573,1.5737,1.5764,1.5773,1.5657,1.5657,1.5657,0,1.5076,1.5148,1.5164,1.5216,1.5245,1.5246,1.53,1.5329,1.5389,1.5409,1.5395,1.5498,1.5529,1.5607,1.5626,1.5649,1.5663,1.5644,1.5728,1.5735,1.5742,1.5767,1.5777,1.5658,1.5658,1.5658,1.5658,0,1.5176,1.5227,1.5265,1.532,1.5354,1.5407,1.543,1.5462,1.5468,1.5487,1.5554,1.559,1.5643,1.5663,1.567,1.5742,1.5733,1.5723,1.5699,1.5753,1.5777,1.5787,1.5661,1.566,1.566,1.5659,0,0,1.5259,1.532,1.5334,1.5358,1.5407,1.5446,1.5499,1.555,1.5576,1.5617,1.566,1.573,1.572,1.575,1.5761,1.5795,1.5852,1.5781,1.5782,1.5791,1.5931,1.5937,1.5948,1.5852,1.5854,1.5855,1.5927,0,1.5333,1.5426,1.544,1.5521,1.5567,1.5567,1.5613,1.5648,1.5667,1.5708,1.573,1.5777,1.5762,1.578,1.5814,1.5838,1.588,1.5833,1.5892,1.5893,1.5879,1.5961,1.5968,1.6034,1.5936,1.5938,1.5939,0,1.5432,1.5473,1.5558,1.5599,1.5619,1.5659,1.5705,1.5745,1.5784,1.5796,1.5828,1.5834,1.5887,1.5861,1.5934,1.5902,1.5926,1.5941,1.5944,1.5949,1.5919,1.5967,1.6055,1.6065,1.5955,1.5953,1.5952,0,1.5482,1.5558,1.5618,1.5639,1.5689,1.5717,1.5739,1.5776,1.5804,1.5845,1.5863,1.591,1.5936,1.5972,1.5989,1.5969,1.6061,1.6036,1.6071,1.607,1.609,1.6088,1.6182,1.6108,1.6108,1.6108,1.6107,0,1.5562,1.5614,1.5641,1.5678,1.5735,1.575,1.5807,1.5828,1.586,1.5901,1.5905,1.5943,1.5965,1.6006,1.602,1.6077,1.6089,1.6099,1.6102,1.6098,1.6097,1.6114,1.6109,1.611,1.611,1.6109,1.6109,0,1.5627,1.5647,1.5712,1.5753,1.5764,1.5804,1.5839,1.5874,1.5893,1.5944,1.5957,1.5985,1.6034,1.6055,1.6115,1.6124,1.6189,1.619,1.6175,1.6176,1.6209,1.6205,1.6316,1.6331,1.6248,1.6249,1.625,0,1.5676,1.5715,1.5759,1.5786,1.5808,1.5852,1.588,1.5897,1.5926,1.5972,1.6002,1.605,1.6089,1.6166,1.6192,1.6237,1.6238,1.6274,1.6245,1.6239,1.6236,1.6233,1.6236,1.6279,1.628,1.628,1.6281,0,1.576,1.5768,1.5808,1.5852,1.5885,1.5921,1.5956,1.5978,1.5999,1.6032,1.6081,1.6111,1.617,1.6218,1.6264,1.6287,1.6287,1.629,1.63,1.6295,1.6285,1.6289,1.6188,1.6287,1.6286,1.6286,1.6286,1.6285,1.5818,1.5852,1.5887,1.5931,1.5959,1.599,1.6025,1.6046,1.6087,1.6136,1.6143,1.6194,1.623,1.6292,1.6317,1.6357,1.6348,1.6363,1.6367,1.637,1.6371,1.6279,1.6366,1.6365,1.6365,1.6365,1.6365,0,1.5901,1.5923,1.5964,1.6011,1.6045,1.6042,1.6079,1.6108,1.6153,1.6186,1.6224,1.6278,1.6323,1.6352,1.6397,1.6424,1.6425,1.6435,1.6433,1.6437,1.6377,1.6363,1.6433,1.6433,1.6433,1.6433,1.6433,1.6433,1.5948,1.6004,1.6015,1.6084,1.6107,1.6156,1.6177,1.6206,1.6232,1.6292,1.6329,1.6347,1.6378,1.6425,1.6466,1.6473,1.6489,1.6499,1.6506,1.6449,1.6442,1.6435,1.6422,1.6503,1.6503,1.6563,1.6563,1.6564]},{"header":{"parameterUnit":"m.s-1","parameterCategory":1,"la1":30.2991,"la2":30.254,"lo1":-89.0895,"lo2":-89.0444,"dy":0.0017,"dx":0.0017,"nx":28,"ny":28,"refTime":"2024-07-04T09:00:00:Z","depth":0,"parameterNumber":3,"parameterNumberName":"V-component_of_WINDS"},"data":[0,0,0,0,0,0,0,0,0,0,0,0,0,0,0,0,0,0,0,0,0,0,0,0,0,0,0,0,0,0,0,0,0,0,0,0,0,0,0,0,0,0,0,0,0,0,0,0,0,0,0,0,0,0,0,0,0,0,4.2172,4.2172,0,4.2213,4.2213,4.2214,4.2161,4.2159,4.2157,4.2155,4.2192,4.2195,4.2198,0,0,0,0,0,0,0,0,0,0,0,0,0,4.2041,4.2044,4.2172,4.2172,4.2173,4.2213,4.2213,4.2214,4.2161,4.2159,4.2157,4.2154,4.2191,4.2195,4.2198,0,0,0,0,0,0,0,0,0,0,0,0,0,4.2092,4.2045,4.2172,4.2152,4.215,4.2213,4.2213,4.2214,4.2162,4.2159,4.2156,4.2153,4.219,4.2194,4.2198,4.2281,0,0,4.2211,4.2213,0,0,0,0,0,0,0,0,4.2089,4.2097,4.2154,4.2153,4.2152,4.2179,4.2181,4.2237,4.2162,4.2157,4.2155,4.2152,4.219,4.2194,4.2208,4.2283,4.2285,4.2211,4.2214,4.2216,4.2217,0,0,0,0,0,0,0,4.2086,4.2094,4.2188,4.2155,4.2153,4.2138,4.2142,4.2191,4.2189,4.2157,4.2154,4.216,4.2189,4.2204,4.2208,4.2285,4.2211,4.2215,4.2218,4.2219,4.2428,4.2431,0,0,0,0,0,0,4.2085,4.2092,4.2187,4.2189,4.2113,4.2143,4.2147,4.2173,4.2188,4.2188,4.2162,4.2157,4.2198,4.2203,4.2209,4.2306,4.2216,4.222,4.2222,4.2425,4.2429,4.2432,0,0,0,0,0,0,4.2083,4.2094,4.2185,4.214,4.215,4.2148,4.2177,4.2175,4.2191,4.2192,4.219,4.2178,4.2196,4.2203,4.2264,4.2306,4.2221,4.2225,4.2422,4.2426,4.2431,4.2501,0,0,0,0,0,0,4.2079,4.2094,4.2127,4.2141,4.2153,4.2241,4.218,4.2178,4.2198,4.2192,4.2207,4.2206,4.2194,4.2258,4.2268,4.231,4.2228,4.2418,4.2424,4.2429,4.2494,4.2507,4.2518,0,0,0,0,0,4.2075,4.2144,4.2129,4.214,4.2194,4.2243,4.225,4.2236,4.2202,4.2234,4.2235,4.2206,4.2301,4.2264,4.2275,4.232,4.2415,4.2422,4.2429,4.2489,4.2505,4.2518,0,0,0,0,0,0,4.2133,4.2146,4.2129,4.2205,4.2224,4.2234,4.2274,4.2253,4.2281,4.2273,4.2254,4.2257,4.2321,4.2327,4.2286,4.24,4.2352,4.2361,4.2394,4.2409,4.242,4.2417,4.2232,0,0,0,0,0,4.2155,4.2196,4.2204,4.227,4.2281,4.2276,4.2297,4.2285,4.2303,4.231,4.2315,4.2332,4.2365,4.2387,4.2418,4.2495,4.2496,4.2531,4.2543,4.2553,4.256,4.26,4.2614,4.2455,4.2455,4.2455,0,0,4.2201,4.2213,4.2239,4.2283,4.2296,4.2336,4.2283,4.2329,4.2358,4.2316,4.2373,4.2378,4.2395,4.2464,4.2494,4.247,4.2605,4.2561,4.2569,4.2572,4.2608,4.2623,4.2637,4.246,4.2459,4.2458,0,0,4.2304,4.2318,4.2374,4.2389,4.241,4.2406,4.242,4.2434,4.2435,4.2493,4.2462,4.2495,4.2554,4.2567,4.2581,4.2689,4.2663,4.2699,4.276,4.2798,4.2811,4.2822,4.2858,4.2872,4.2707,4.2708,4.2708,0,4.2357,4.2419,4.2405,4.2453,4.2472,4.2438,4.2493,4.2507,4.2536,4.2549,4.2522,4.2594,4.2603,4.2674,4.27,4.2714,4.2726,4.2697,4.2811,4.2821,4.2831,4.2866,4.288,4.2712,4.2711,4.2711,4.2711,0,4.2483,4.2526,4.2568,4.2599,4.2623,4.2674,4.2666,4.2691,4.2677,4.2675,4.2733,4.2743,4.2775,4.2791,4.2777,4.2859,4.2843,4.2814,4.2765,4.2851,4.2883,4.2896,4.2718,4.2716,4.2715,4.2714,0,0,4.2624,4.2646,4.2662,4.2674,4.2695,4.2727,4.2775,4.2808,4.2829,4.285,4.2889,4.2939,4.2912,4.2928,4.2915,4.2949,4.3031,4.2915,4.2915,4.2935,4.312,4.3141,4.3157,4.3015,4.3017,4.3019,4.3118,0,4.2725,4.2812,4.28,4.2882,4.292,4.2888,4.293,4.2946,4.2946,4.2977,4.2976,4.3011,4.2973,4.2983,4.3015,4.3015,4.3068,4.3007,4.3048,4.305,4.3044,4.3174,4.3196,4.3289,4.3131,4.3133,4.3134,0,4.2856,4.2883,4.2969,4.2982,4.2998,4.3036,4.3064,4.3095,4.3111,4.3108,4.3127,4.3108,4.3154,4.3106,4.3168,4.3127,4.3143,4.3146,4.3149,4.315,4.3096,4.3177,4.3318,4.3331,4.3154,4.3153,4.3151,0,4.2948,4.3006,4.3064,4.3076,4.3094,4.3121,4.3129,4.3143,4.3163,4.3187,4.3199,4.3227,4.3243,4.3264,4.3253,4.3219,4.3316,4.3267,4.3314,4.3314,4.3334,4.3333,4.3478,4.3348,4.3348,4.3347,4.3347,0,4.3062,4.3115,4.3105,4.3141,4.3199,4.3185,4.3242,4.3246,4.3259,4.3293,4.3267,4.3299,4.3283,4.3313,4.3304,4.3356,4.3364,4.3361,4.3358,4.3363,4.3363,4.3372,4.3364,4.3351,4.335,4.335,4.3349,0,4.3173,4.317,4.3231,4.3243,4.3247,4.3289,4.3297,4.333,4.3328,4.3372,4.3381,4.3377,4.3412,4.3403,4.344,4.3434,4.3499,4.3489,4.3494,4.3491,4.3537,4.3532,4.3691,4.371,4.357,4.3571,4.3572,0,4.3246,4.3286,4.3302,4.3324,4.3335,4.3371,4.3391,4.3377,4.3399,4.3421,4.345,4.3483,4.3508,4.3565,4.3564,4.3592,4.3581,4.3635,4.3585,4.3588,4.3579,4.3576,4.3579,4.3644,4.3646,4.3647,4.3648,0,4.3374,4.337,4.3401,4.3431,4.3456,4.3479,4.3499,4.3518,4.3506,4.3531,4.3567,4.3587,4.3625,4.3657,4.3683,4.3689,4.3666,4.3664,4.3676,4.368,4.3681,4.3679,4.3519,4.366,4.3659,4.3658,4.3657,4.3657,4.3466,4.35,4.3517,4.3552,4.3566,4.3585,4.3616,4.3618,4.3648,4.3679,4.3669,4.371,4.3723,4.3756,4.3765,4.3795,4.3775,4.3792,4.3796,4.38,4.3805,4.3678,4.38,4.38,4.38,4.3799,4.3799,0,4.3591,4.36,4.3633,4.3662,4.3689,4.3667,4.3688,4.3711,4.3748,4.3763,4.3789,4.3829,4.386,4.3862,4.3891,4.3914,4.3904,4.3922,4.3919,4.392,4.3823,4.3809,4.393,4.393,4.393,4.3929,4.3929,4.3929,4.3659,4.3715,4.3713,4.3774,4.3782,4.3822,4.3836,4.3853,4.3865,4.3912,4.3938,4.3939,4.3949,4.3978,4.4005,4.4004,4.4015,4.4036,4.4032,4.3941,4.3928,4.3915,4.3902,4.4039,4.404,4.4126,4.4127,4.4128]}]]